Location: Unspecified
(0.0000°N, 0.0000°E)
Time: 12:51:45
(UTC+00:00)

Vanguard 2 - Pass Details

Date: 18 September 2019
Orbit: 554 x 2937 km, 32.9° (Epoch: 13 October)

Event Time Altitude Azimuth Distance (km) Brightness Sun altitude
Rises 02:03:27 0° 253° (WSW) 6,765 - -57.7°
Reaches altitude 10° 02:08:41 10° 260° (W) 5,629 - -56.4°
Maximum altitude 02:23:18 38° 322° (NW) 3,114 - -52.7°
Exits shadow 02:30:45 20° 16° (NNE) 3,456 10.8 -50.9°
Drops below altitude 10° 02:33:32 10° 27° (NNE) 3,950 11.3 -50.2°
Sets 02:36:32 0° 36° (NE) 4,627 11.9 -49.4°
